Location: Ladd Observatory
(41.8387°N, 71.3996°W)
Time: 11:12:24
(UTC-04:00)

ISS - Visible Passes

Search period start: 03 September 2015 00:00
Search period end: 13 September 2015 00:00
Orbit: 400 x 403 km, 51.6° (Epoch: 01 September)

Date Brightness Start Highest point End Pass type
(mag) Time Alt. Az. Time Alt. Az. Time Alt. Az.
07 Sep -0.5 05:25:12 10° SSE 05:26:44 13° SE 05:28:22 10° E visible
09 Sep -1.7 05:13:32 10° SSW 05:16:20 29° SE 05:19:14 10° ENE visible
10 Sep -0.9 04:22:46 15° SE 04:23:13 15° SE 04:25:14 10° E visible
11 Sep -3.2 05:04:32 28° SW 05:06:03 68° SE 05:09:18 10° ENE visible
12 Sep -1.6 04:13:36 29° ESE 04:13:36 29° ESE 04:15:51 10° ENE visible
12 Sep -2.2 05:46:15 10° W 05:49:16 33° NNW 05:52:17 10° NE visible
